Temp
41 41 43 45 46 46 46 46 48 48 47 46 46 46 46 46 46 47 47 47 48 48 48 49 49 49 49 49 49 49 49 50 50 51 51 50 50 50 50 51 52 52 52 52 52 52 51 51 51 51 51 51 51 51 52 53 53 54 54 55 55 55 54 54 54 55 55 55 55
40 40 42 45 46 46 46 46 47 47 47 46 46 46 45 46 46 47 47 47 48 48 48 49 49 49 48 48 49 49 49 49 49 50 50 50 50 51 51 51 52 52 52 53 52 51 51 51 51 50 50 51 51 51 51 53 53 53 53 54 55 55 55 54 54 54 55 55 55
39 40 41 42 42 43 44 45 45 44 44 44 45 45 46 46 46 47 47 47 47 47 48 48 48 48 48 48 48 49 49 49 49 50 50 51 51 51 51 51 51 52 52 52 52 51 51 51 50 50 50 50 50 50 51 52 52 52 52 53 54 54 54 54 54 54 55 55 55
39 40 41 41 40 40 41 44 44 43 43 45 44 44 45 46 46 47 47 47 46 47 47 48 47 47 48 48 48 48 49 49 50 51 51 51 50 50 50 51 51 51 52 52 51 51 51 51 50 50 50 49 49 50 50 51 52 52 52 53 53 54 54 54 54 54 54 54 55
40 40 41 42 40 41 41 41 42 43 43 45 45 45 45 46 46 46 46 46 47 47 47 47 47 47 47 48 48 48 48 49 50 51 51 50 51 51 51 50 50 50 51 51 51 51 51 51 50 50 49 49 49 50 50 51 51 51 52 53 53 54 54 54 54 54 54 54 55
40 40 41 41 40 41 41 42 41 41 43 44 43 44 44 46 46 46 46 46 46 46 47 47 47 47 48 48 48 48 48 49 50 50 50 50 50 50 50 50 50 50 50 50 50 50 50 50 50 50 49 49 50 50 50 51 51 51 51 52 53 54 54 54 54 55 54 54 54
40 40 41 41 41 41 42 41 41 41 42 42 42 42 43 44 44 44 44 45 46 46 47 48 47 47 47 47 47 47 48 48 49 50 50 50 49 49 49 50 50 50 49 50 50 50 50 50 49 49 49 50 50 50 51 51 51 51 51 51 53 53 54 53 54 54 54 54 54
40 41 41 42 42 42 41 41 41 41 42 43 43 42 42 42 43 43 44 45 46 46 46 47 46 46 46 46 46 46 47 47 49 49 50 50 49 49 49 50 50 49 49 49 50 50 50 50 49 49 49 49 49 50 50 51 51 50 51 51 52 53 54 54 54 54 54 54 54
42 42 42 42 42 42 41 41 40 40 41 42 42 42 42 43 43 43 44 45 46 46 46 46 45 45 45 45 45 45 46 47 48 49 49 49 49 48 49 49 49 49 49 50 50 50 50 50 49 49 49 49 49 50 50 51 50 50 51 51 52 53 54 54 54 54 54 54 54
42 42 42 43 42 42 42 41 40 40 40 41 41 42 43 45 44 44 44 45 45 45 45 45 45 44 44 44 45 45 46 47 47 48 48 49 48 48 48 49 49 49 50 50 50 50 50 49 49 49 49 49 49 50 50 51 50 50 50 51 52 53 53 54 54 54 54 54 53
41 42 42 43 42 42 42 40 41 41 42 42 42 42 43 44 44 44 44 45 44 44 44 44 44 44 44 44 44 45 46 46 47 48 48 48 48 48 48 49 49 49 49 49 49 49 49 48 48 48 49 49 50 50 50 51 51 50 50 51 52 52 53 53 54 54 53 53 53
41 42 42 42 42 41 41 40 41 42 42 42 42 42 42 43 43 44 44 44 44 44 44 44 44 44 44 44 44 45 46 46 47 47 48 48 48 48 48 48 48 48 48 48 48 48 48 48 48 48 48 49 49 50 50 51 51 51 51 51 51 52 52 53 53 53 53 53 53
41 41 42 42 41 40 40 40 41 41 42 42 42 42 43 43 44 44 44 43 44 44 44 44 44 44 44 44 44 44 45 46 46 47 48 48 48 48 48 48 48 48 48 47 48 48 48 48 48 48 48 48 49 50 50 51 51 51 51 52 52 52 53 53 53 53 53 53 52
41 41 41 41 41 40 40 40 41 42 42 42 42 42 43 43 44 44 44 43 43 43 43 44 44 44 44 44 44 44 45 45 46 47 48 48 48 48 48 48 48 47 47 47 48 48 48 48 48 48 48 48 49 50 50 51 52 52 52 52 52 53 53 53 53 53 53 52 52
41 41 42 41 41 41 41 41 42 42 42 42 43 43 43 43 43 44 44 43 43 43 43 43 44 44 44 44 44 44 45 45 46 47 47 48 48 48 48 48 47 47 47 47 47 48 48 48 48 48 48 48 49 49 50 51 52 52 52 52 52 53 53 53 53 53 53 53 52
41 42 42 41 41 41 41 41 43 43 43 43 43 43 43 43 43 43 43 43 43 43 43 43 43 43 44 44 45 44 44 45 46 46 47 48 48 48 48 47 47 47 47 47 47 47 48 48 48 48 48 48 49 49 50 51 52 52 52 52 52 53 53 54 53 53 53 53 53
42 42 42 42 42 42 42 43 43 43 43 43 42 42 43 43 43 43 43 43 43 43 43 43 43 43 43 44 44 44 44 44 45 46 47 48 48 48 47 47 47 47 47 47 47 47 48 48 48 48 49 49 49 49 50 51 52 52 53 52 52 52 53 54 53 53 53 53 53
42 42 43 42 42 43 43 43 44 44 43 42 42 42 42 43 42 42 43 43 43 42 42 42 43 43 43 43 43 44 44 44 45 46 47 48 48 48 47 47 47 47 47 47 47 47 47 48 48 48 49 49 49 50 50 51 52 53 53 53 53 53 53 53 53 53 53 52 53
42 42 43 43 43 43 43 43 43 43 43 42 42 42 42 42 42 41 42 42 43 42 42 42 42 42 43 43 43 43 44 44 45 46 47 48 48 47 47 47 47 47 47 47 47 47 48 48 48 48 49 49 49 50 51 51 52 53 53 53 53 53 53 53 53 53 53 53 53
42 42 42 43 42 42 42 42 42 42 42 42 42 41 41 41 41 41 41 41 42 42 42 42 42 42 42 42 43 43 44 45 45 46 47 48 48 47 47 47 46 46 46 47 47 47 48 48 48 48 49 49 50 50 51 52 52 53 53 53 53 53 53 53 53 53 53 53 53
42 42 42 42 41 41 41 42 42 42 42 41 41 41 41 41 41 41 41 42 42 42 42 42 42 42 42 42 42 43 43 45 46 47 48 48 47 47 47 47 46 46 46 47 47 47 48 48 48 49 49 50 50 51 51 52 52 53 53 53 53 53 53 53 53 53 53 53 53
42 42 41 41 41 41 42 42 41 41 41 41 41 41 40 40 41 41 41 42 42 42 42 42 42 42 42 42 42 43 44 45 46 47 48 48 47 47 47 47 46 46 46 46 47 47 48 48 49 49 50 50 51 52 52 52 53 53 53 53 53 53 53 53 54 54 54 54 54
41 41 41 42 41 42 42 42 41 41 40 40 40 40 40 40 41 41 41 42 42 42 42 42 42 42 42 42 42 43 44 45 46 47 47 47 47 47 47 47 46 46 46 46 47 48 48 49 50 50 51 51 52 52 53 53 53 53 53 53 53 53 53 53 54 54 54 54 54
40 41 41 41 40 40 40 40 40 40 40 40 40 40 40 40 40 41 41 41 41 41 41 41 42 42 42 42 43 43 44 45 45 46 46 46 46 46 46 46 46 46 46 47 48 49 50 50 50 51 52 52 53 53 53 53 53 53 53 53 53 53 53 53 54 54 54 54 54
39 40 40 40 40 40 39 39 39 39 39 40 40 40 40 40 40 41 41 41 41 41 41 41 41 42 42 43 43 44 44 45 45 45 46 46 46 46 46 46 46 46 46 47 51 53 53 53 53 52 53 53 53 53 53 53 53 53 53 53 53 53 53 53 53 54 54 54 54
39 39 39 39 39 39 39 39 39 39 39 39 39 39 39 40 40 40 40 41 41 41 41 41 41 42 43 43 43 44 44 45 45 45 45 46 46 46 46 46 46 46 47 49 52 54 54 55 55 54 54 54 53 53 53 52 52 52 53 53 53 53 53 53 53 53 54 54 55
38 38 39 39 39 39 39 39 39 39 39 39 39 39 39 39 40 40 40 40 41 41 41 41 41 43 44 43 43 43 44 44 45 45 45 46 45 45 46 46 46 46 47 50 53 54 55 55 56 56 55 54 54 53 52 52 52 52 52 53 53 53 53 53 53 53 54 54 54
38 38 38 38 38 38 39 39 39 39 39 39 38 39 39 39 39 40 40 40 40 41 41 41 42 43 43 44 43 43 43 44 45 45 45 46 46 46 46 46 46 47 49 52 54 54 55 55 56 57 56 56 54 53 52 51 51 52 52 52 53 53 53 53 53 53 53 54 54
38 38 38 37 38 38 38 38 38 38 38 38 38 38 39 39 39 40 40 40 40 41 41 42 43 43 43 43 43 43 44 44 45 45 45 45 45 46 46 46 46 48 50 53 54 55 55 56 56 57 57 56 54 53 52 52 52 51 51 51 52 53 53 53 53 53 53 53 53
37 37 37 37 37 38 38 38 38 38 38 38 38 38 38 39 39 40 40 40 40 41 42 42 42 42 42 42 43 43 44 45 45 45 45 45 45 46 46 46 46 47 50 53 54 55 55 55 56 56 57 57 55 53 52 52 51 51 51 51 51 52 53 53 53 53 53 53 53
37 37 37 37 37 38 38 38 38 38 38 38 38 38 38 39 40 40 41 40 41 42 43 43 42 41 42 43 43 43 44 44 45 45 45 45 46 46 46 46 46 47 50 53 54 55 55 55 56 56 56 57 55 53 52 52 51 51 51 51 51 51 52 53 53 53 53 53 53
36 36 37 37 38 39 39 40 40 40 40 39 39 40 40 41 41 41 41 41 41 42 42 42 41 41 42 42 43 43 44 44 45 45 46 46 45 45 45 46 46 48 50 54 54 55 55 55 55 56 56 57 55 53 52 52 51 51 51 51 51 51 52 52 52 53 53 53 53
37 37 38 38 39 40 41 41 41 40 40 39 40 41 41 42 42 42 42 41 41 41 41 41 41 41 41 42 42 43 43 44 45 46 46 46 45 45 45 46 46 48 51 54 55 55 55 55 55 56 56 57 55 53 52 52 51 51 51 51 51 51 51 52 52 52 53 53 53
37 37 37 38 39 39 39 39 39 39 39 39 40 41 41 42 41 41 41 41 42 42 42 41 41 41 42 42 42 43 44 45 45 45 45 45 45 45 46 46 46 49 52 54 54 54 54 55 55 56 56 56 54 53 52 51 51 51 51 51 51 51 51 51 51 52 52 52 53
36 36 36 37 37 37 37 37 37 37 38 38 40 41 41 41 41 40 41 42 43 42 42 42 42 42 42 43 43 43 44 44 44 44 45 45 45 45 45 46 47 50 53 54 54 54 54 55 55 56 56 56 54 52 52 51 51 51 51 50 50 50 51 51 51 52 52 52 53
36 36 35 36 36 36 36 36 35 36 37 38 39 40 41 41 40 40 41 43 43 42 41 41 42 42 42 43 43 44 44 44 44 44 45 45 45 45 45 46 47 50 52 53 53 54 54 55 55 56 56 55 53 52 52 51 51 51 50 50 50 50 50 50 51 51 52 52 53
36 35 35 35 35 35 35 35 35 35 36 37 38 39 39 40 40 40 41 43 41 40 40 41 41 41 42 42 43 43 44 44 44 44 45 46 45 45 45 46 47 49 51 52 53 53 54 54 55 56 56 54 52 51 51 51 51 50 50 50 50 50 50 50 51 51 51 52 53
36 35 34 34 34 35 35 35 35 35 36 37 37 38 39 39 39 40 41 43 41 40 40 40 41 41 42 42 43 44 44 44 45 45 45 45 45 46 47 47 47 48 50 51 52 53 54 54 56 57 56 54 52 51 51 51 50 50 50 50 50 50 50 50 51 51 52 52 54
35 34 34 34 34 34 34 34 35 35 36 36 37 38 38 39 39 40 41 42 40 39 39 40 40 41 42 43 44 44 44 44 45 45 45 45 46 48 49 48 47 48 49 51 52 53 53 54 56 57 57 54 52 51 51 50 50 50 50 50 50 50 50 50 51 51 52 53 55
34 34 33 33 33 34 34 34 35 35 36 37 37 37 38 39 40 41 41 41 40 39 39 40 40 41 42 44 44 44 43 44 44 45 46 46 47 49 50 48 47 47 48 50 51 52 53 54 56 57 56 53 52 51 51 50 50 49 49 49 49 49 50 50 50 51 52 53 54
34 33 33 33 33 34 34 34 35 36 36 37 37 38 39 40 40 40 40 40 39 39 40 40 41 41 42 44 44 43 43 43 44 45 46 47 48 49 49 48 47 47 47 49 51 52 53 54 56 56 55 52 51 51 51 50 49 49 49 49 49 49 49 50 50 51 51 52 53
MSLP
1025.40 1025.32 1025.20 1025.08 1024.96 1024.84 1024.72 1024.60 1024.40 1024.24 1024.12 1024.04 1023.92 1023.76 1023.60 1023.40 1023.28 1023.00 1022.80 1022.56 1022.36 1022.12 1021.88 1021.68 1021.40 1021.12 1020.84 1020.64 1020.48 1020.28 1020.00 1019.76 1019.56 1019.40 1019.16 1018.96 1018.76 1018.56 1018.32 1018.12 1017.88 1017.68 1017.44 1017.24 1016.96 1016.72 1016.56 1016.32 1016.12 1015.84 1015.56 1015.24 1014.96 1014.60 1014.32 1014.04 1013.80 1013.48 1013.16 1012.84 1012.56 1012.36 1012.24 1012.08 1011.76 1011.56 1011.40 1011.40 1011.40
1025.36 1025.24 1025.12 1025.00 1024.88 1024.80 1024.68 1024.52 1024.32 1024.16 1024.08 1024.00 1023.84 1023.68 1023.52 1023.40 1023.16 1022.96 1022.68 1022.48 1022.28 1022.08 1021.84 1021.56 1021.28 1021.04 1020.80 1020.56 1020.36 1020.16 1019.92 1019.68 1019.44 1019.24 1019.00 1018.76 1018.56 1018.32 1018.12 1017.88 1017.68 1017.48 1017.28 1016.96 1016.72 1016.48 1016.28 1016.08 1015.84 1015.56 1015.24 1014.88 1014.56 1014.28 1013.96 1013.64 1013.44 1013.16 1012.84 1012.56 1012.28 1012.00 1011.84 1011.72 1011.56 1011.36 1011.16 1011.00 1010.96
1025.32 1025.16 1025.04 1024.96 1024.84 1024.76 1024.68 1024.48 1024.28 1024.16 1024.04 1023.92 1023.72 1023.60 1023.44 1023.28 1023.08 1022.84 1022.60 1022.40 1022.20 1022.00 1021.76 1021.44 1021.16 1020.96 1020.68 1020.44 1020.16 1020.00 1019.80 1019.56 1019.32 1019.08 1018.84 1018.56 1018.32 1018.08 1017.88 1017.68 1017.44 1017.20 1016.96 1016.68 1016.48 1016.28 1016.04 1015.80 1015.56 1015.28 1014.92 1014.56 1014.24 1013.92 1013.56 1013.24 1013.08 1012.84 1012.52 1012.20 1011.88 1011.64 1011.44 1011.32 1011.20 1011.12 1010.96 1010.72 1010.56
1025.24 1025.12 1025.00 1024.92 1024.84 1024.80 1024.68 1024.48 1024.28 1024.12 1024.00 1023.80 1023.64 1023.48 1023.32 1023.16 1022.96 1022.76 1022.52 1022.28 1022.12 1021.88 1021.64 1021.40 1021.12 1020.84 1020.56 1020.36 1020.04 1019.84 1019.64 1019.44 1019.20 1018.92 1018.68 1018.40 1018.12 1017.92 1017.68 1017.48 1017.24 1016.96 1016.68 1016.44 1016.20 1015.96 1015.72 1015.52 1015.28 1014.96 1014.56 1014.20 1013.88 1013.56 1013.16 1012.84 1012.60 1012.40 1012.12 1011.80 1011.56 1011.28 1011.04 1010.84 1010.84 1010.76 1010.68 1010.52 1010.28
1025.16 1025.08 1025.00 1024.88 1024.80 1024.68 1024.56 1024.40 1024.28 1024.12 1023.96 1023.76 1023.60 1023.40 1023.20 1023.00 1022.84 1022.64 1022.40 1022.20 1022.00 1021.76 1021.52 1021.28 1021.04 1020.76 1020.48 1020.24 1020.00 1019.72 1019.48 1019.24 1019.00 1018.76 1018.48 1018.20 1017.96 1017.68 1017.44 1017.28 1016.96 1016.72 1016.44 1016.20 1015.96 1015.68 1015.40 1015.20 1014.92 1014.56 1014.24 1013.84 1013.52 1013.12 1012.72 1012.44 1012.20 1011.96 1011.68 1011.44 1011.16 1010.92 1010.68 1010.44 1010.32 1010.32 1010.36 1010.28 1010.12
1025.16 1025.00 1024.88 1024.76 1024.68 1024.56 1024.44 1024.28 1024.20 1024.12 1023.92 1023.72 1023.56 1023.40 1023.16 1022.96 1022.72 1022.56 1022.40 1022.16 1021.92 1021.68 1021.40 1021.12 1020.88 1020.60 1020.36 1020.12 1019.88 1019.64 1019.36 1019.08 1018.84 1018.60 1018.36 1018.04 1017.76 1017.52 1017.24 1016.96 1016.72 1016.44 1016.16 1015.92 1015.64 1015.40 1015.12 1014.84 1014.56 1014.20 1013.80 1013.44 1013.04 1012.68 1012.32 1012.08 1011.84 1011.56 1011.24 1010.96 1010.68 1010.52 1010.32 1010.08 1009.88 1009.84 1009.92 1009.92 1009.96
1025.16 1025.00 1024.84 1024.68 1024.60 1024.48 1024.36 1024.20 1024.08 1024.00 1023.84 1023.68 1023.52 1023.32 1023.12 1022.88 1022.68 1022.56 1022.36 1022.12 1021.84 1021.56 1021.24 1020.96 1020.76 1020.52 1020.28 1020.00 1019.80 1019.56 1019.28 1018.96 1018.68 1018.44 1018.20 1017.88 1017.56 1017.32 1017.08 1016.76 1016.44 1016.20 1015.96 1015.64 1015.32 1015.04 1014.80 1014.56 1014.24 1013.84 1013.44 1013.08 1012.68 1012.28 1011.96 1011.72 1011.44 1011.12 1010.80 1010.48 1010.24 1010.12 1009.96 1009.72 1009.56 1009.48 1009.52 1009.56 1009.56
1025.04 1024.92 1024.76 1024.64 1024.48 1024.40 1024.28 1024.12 1024.00 1023.88 1023.72 1023.56 1023.40 1023.20 1023.00 1022.84 1022.64 1022.40 1022.20 1022.00 1021.72 1021.44 1021.16 1020.92 1020.68 1020.48 1020.24 1020.00 1019.76 1019.48 1019.20 1018.88 1018.56 1018.28 1018.00 1017.72 1017.40 1017.12 1016.84 1016.56 1016.24 1015.92 1015.60 1015.32 1015.04 1014.72 1014.48 1014.20 1013.92 1013.52 1013.12 1012.72 1012.32 1011.88 1011.52 1011.28 1011.00 1010.68 1010.36 1010.00 1009.80 1009.64 1009.52 1009.36 1009.20 1009.12 1009.12 1009.12 1009.16
1024.92 1024.76 1024.64 1024.52 1024.40 1024.28 1024.20 1024.08 1024.00 1023.84 1023.68 1023.52 1023.28 1023.12 1022.92 1022.72 1022.52 1022.28 1022.12 1021.84 1021.60 1021.36 1021.12 1020.84 1020.56 1020.36 1020.12 1019.92 1019.68 1019.40 1019.12 1018.80 1018.44 1018.12 1017.80 1017.52 1017.28 1016.92 1016.56 1016.28 1016.00 1015.64 1015.32 1015.00 1014.76 1014.48 1014.16 1013.84 1013.52 1013.12 1012.76 1012.40 1012.00 1011.56 1011.12 1010.88 1010.60 1010.28 1009.92 1009.56 1009.32 1009.12 1009.00 1008.92 1008.84 1008.72 1008.68 1008.72 1008.72
1024.88 1024.72 1024.56 1024.40 1024.28 1024.16 1024.08 1024.00 1023.84 1023.72 1023.56 1023.40 1023.12 1022.96 1022.76 1022.56 1022.36 1022.16 1022.00 1021.80 1021.52 1021.24 1020.96 1020.76 1020.48 1020.24 1020.00 1019.80 1019.52 1019.28 1018.96 1018.68 1018.32 1018.00 1017.64 1017.32 1017.04 1016.72 1016.40 1016.08 1015.76 1015.40 1015.04 1014.68 1014.40 1014.12 1013.84 1013.52 1013.12 1012.76 1012.36 1012.00 1011.64 1011.24 1010.84 1010.48 1010.12 1009.80 1009.40 1009.12 1008.88 1008.68 1008.56 1008.40 1008.40 1008.36 1008.32 1008.32 1008.36
1024.84 1024.68 1024.56 1024.40 1024.20 1024.12 1024.00 1023.88 1023.72 1023.56 1023.40 1023.24 1023.00 1022.80 1022.60 1022.40 1022.24 1022.00 1021.84 1021.64 1021.40 1021.12 1020.88 1020.60 1020.40 1020.16 1019.96 1019.68 1019.40 1019.12 1018.84 1018.52 1018.20 1017.84 1017.48 1017.12 1016.84 1016.56 1016.20 1015.88 1015.56 1015.20 1014.84 1014.48 1014.20 1013.88 1013.56 1013.16 1012.76 1012.36 1011.96 1011.56 1011.24 1010.84 1010.40 1010.00 1009.68 1009.28 1008.88 1008.60 1008.44 1008.28 1008.20 1008.12 1008.08 1008.12 1008.12 1008.08 1008.04
1024.80 1024.60 1024.44 1024.32 1024.12 1024.04 1023.96 1023.84 1023.68 1023.44 1023.28 1023.08 1022.88 1022.68 1022.48 1022.28 1022.12 1021.88 1021.68 1021.52 1021.28 1021.00 1020.72 1020.48 1020.28 1020.08 1019.84 1019.56 1019.28 1019.00 1018.68 1018.36 1018.00 1017.68 1017.36 1017.00 1016.68 1016.32 1016.00 1015.64 1015.32 1014.96 1014.64 1014.28 1014.00 1013.68 1013.32 1012.88 1012.44 1012.00 1011.56 1011.12 1010.84 1010.44 1010.04 1009.60 1009.24 1008.84 1008.44 1008.12 1008.00 1007.92 1007.84 1007.76 1007.80 1007.84 1007.84 1007.84 1007.84
1024.68 1024.56 1024.40 1024.24 1024.08 1024.00 1023.88 1023.72 1023.56 1023.36 1023.16 1022.96 1022.76 1022.56 1022.36 1022.12 1021.96 1021.76 1021.56 1021.40 1021.12 1020.84 1020.56 1020.32 1020.12 1019.96 1019.68 1019.40 1019.12 1018.84 1018.56 1018.20 1017.84 1017.56 1017.20 1016.84 1016.48 1016.12 1015.76 1015.40 1015.08 1014.72 1014.40 1014.04 1013.72 1013.40 1013.04 1012.56 1012.12 1011.68 1011.20 1010.76 1010.40 1010.04 1009.68 1009.28 1008.84 1008.48 1008.08 1007.80 1007.60 1007.48 1007.40 1007.40 1007.44 1007.52 1007.56 1007.60 1007.68
1024.64 1024.48 1024.32 1024.16 1024.04 1023.92 1023.80 1023.68 1023.48 1023.28 1023.08 1022.84 1022.64 1022.44 1022.24 1022.00 1021.80 1021.60 1021.44 1021.28 1021.00 1020.72 1020.48 1020.20 1019.96 1019.72 1019.56 1019.28 1018.96 1018.68 1018.40 1018.08 1017.72 1017.36 1017.00 1016.68 1016.28 1015.92 1015.56 1015.20 1014.84 1014.52 1014.16 1013.76 1013.40 1013.12 1012.72 1012.28 1011.84 1011.36 1010.92 1010.44 1010.04 1009.64 1009.28 1008.92 1008.56 1008.16 1007.84 1007.56 1007.24 1007.08 1006.96 1007.00 1007.04 1007.12 1007.24 1007.32 1007.48
1024.56 1024.36 1024.20 1024.08 1024.00 1023.84 1023.68 1023.56 1023.40 1023.16 1022.96 1022.76 1022.52 1022.28 1022.12 1021.92 1021.68 1021.52 1021.32 1021.12 1020.88 1020.68 1020.40 1020.08 1019.80 1019.56 1019.32 1019.12 1018.84 1018.56 1018.24 1017.88 1017.56 1017.24 1016.84 1016.44 1016.08 1015.72 1015.36 1015.00 1014.60 1014.28 1013.92 1013.52 1013.12 1012.76 1012.40 1011.96 1011.52 1011.08 1010.64 1010.16 1009.68 1009.28 1008.88 1008.56 1008.16 1007.84 1007.56 1007.28 1007.00 1006.76 1006.60 1006.60 1006.68 1006.76 1006.84 1006.96 1007.12
1024.48 1024.28 1024.12 1024.00 1023.88 1023.76 1023.64 1023.48 1023.28 1023.04 1022.84 1022.68 1022.40 1022.20 1022.00 1021.84 1021.60 1021.40 1021.24 1020.96 1020.76 1020.52 1020.28 1020.00 1019.68 1019.40 1019.12 1018.88 1018.64 1018.36 1018.04 1017.72 1017.40 1017.04 1016.68 1016.28 1015.88 1015.48 1015.12 1014.80 1014.40 1014.00 1013.64 1013.28 1012.84 1012.40 1011.96 1011.56 1011.16 1010.76 1010.28 1009.84 1009.40 1008.96 1008.56 1008.16 1007.80 1007.44 1007.12 1006.92 1006.72 1006.52 1006.28 1006.20 1006.28 1006.40 1006.56 1006.64 1006.84
1024.40 1024.28 1024.08 1023.96 1023.84 1023.68 1023.56 1023.36 1023.12 1022.96 1022.76 1022.56 1022.32 1022.12 1021.96 1021.72 1021.52 1021.28 1021.12 1020.88 1020.64 1020.40 1020.12 1019.84 1019.56 1019.28 1018.96 1018.68 1018.40 1018.16 1017.92 1017.56 1017.24 1016.88 1016.52 1016.12 1015.68 1015.28 1014.96 1014.56 1014.20 1013.80 1013.40 1013.00 1012.56 1012.08 1011.56 1011.12 1010.76 1010.36 1009.96 1009.52 1009.08 1008.64 1008.20 1007.76 1007.40 1007.04 1006.72 1006.48 1006.28 1006.12 1006.00 1005.84 1005.84 1006.04 1006.28 1006.44 1006.56
1024.40 1024.20 1024.04 1023.92 1023.76 1023.60 1023.40 1023.28 1023.08 1022.84 1022.64 1022.44 1022.24 1022.00 1021.84 1021.64 1021.44 1021.24 1020.96 1020.76 1020.56 1020.28 1020.00 1019.68 1019.40 1019.16 1018.88 1018.56 1018.28 1018.04 1017.76 1017.44 1017.08 1016.68 1016.32 1015.92 1015.52 1015.12 1014.76 1014.40 1014.00 1013.56 1013.20 1012.80 1012.32 1011.84 1011.32 1010.80 1010.36 1009.96 1009.56 1009.12 1008.68 1008.20 1007.72 1007.28 1006.92 1006.56 1006.28 1006.00 1005.76 1005.60 1005.52 1005.40 1005.48 1005.64 1005.88 1006.12 1006.28
1024.32 1024.12 1024.00 1023.84 1023.68 1023.52 1023.36 1023.16 1022.96 1022.76 1022.56 1022.36 1022.12 1021.92 1021.72 1021.56 1021.32 1021.12 1020.88 1020.60 1020.36 1020.16 1019.92 1019.60 1019.28 1018.96 1018.72 1018.44 1018.16 1017.84 1017.56 1017.28 1016.92 1016.52 1016.12 1015.68 1015.32 1014.96 1014.56 1014.20 1013.76 1013.36 1012.96 1012.56 1012.04 1011.52 1011.00 1010.52 1010.00 1009.56 1009.12 1008.68 1008.20 1007.68 1007.20 1006.72 1006.28 1005.96 1005.64 1005.40 1005.16 1005.00 1004.96 1004.96 1005.00 1005.16 1005.40 1005.72 1005.96
1024.28 1024.12 1023.96 1023.80 1023.64 1023.48 1023.28 1023.08 1022.84 1022.64 1022.44 1022.24 1022.04 1021.84 1021.60 1021.40 1021.20 1021.00 1020.80 1020.48 1020.20 1020.00 1019.76 1019.52 1019.24 1018.88 1018.56 1018.28 1018.00 1017.68 1017.40 1017.08 1016.72 1016.32 1015.92 1015.48 1015.12 1014.76 1014.40 1014.00 1013.56 1013.12 1012.72 1012.28 1011.76 1011.24 1010.68 1010.20 1009.68 1009.20 1008.72 1008.24 1007.68 1007.12 1006.56 1006.08 1005.60 1005.24 1004.96 1004.76 1004.60 1004.48 1004.44 1004.48 1004.56 1004.72 1004.96 1005.32 1005.64
1024.20 1024.04 1023.84 1023.68 1023.56 1023.40 1023.16 1022.96 1022.72 1022.52 1022.32 1022.12 1021.96 1021.72 1021.48 1021.28 1021.08 1020.88 1020.64 1020.36 1020.08 1019.84 1019.60 1019.40 1019.12 1018.80 1018.48 1018.12 1017.84 1017.48 1017.16 1016.84 1016.52 1016.12 1015.72 1015.36 1014.96 1014.60 1014.24 1013.84 1013.40 1012.96 1012.48 1012.00 1011.44 1010.92 1010.40 1009.92 1009.40 1008.84 1008.32 1007.76 1007.12 1006.56 1005.96 1005.40 1004.92 1004.56 1004.32 1004.20 1004.08 1004.00 1004.00 1004.04 1004.16 1004.36 1004.64 1004.92 1005.28
1024.12 1023.92 1023.76 1023.60 1023.44 1023.28 1023.04 1022.84 1022.60 1022.40 1022.24 1022.04 1021.80 1021.56 1021.36 1021.16 1020.96 1020.68 1020.44 1020.20 1019.96 1019.68 1019.44 1019.24 1018.96 1018.68 1018.40 1018.04 1017.72 1017.36 1017.00 1016.64 1016.28 1015.96 1015.56 1015.24 1014.84 1014.44 1014.08 1013.68 1013.24 1012.72 1012.24 1011.72 1011.20 1010.68 1010.12 1009.56 1009.04 1008.48 1007.88 1007.28 1006.60 1005.92 1005.32 1004.80 1004.36 1004.04 1003.84 1003.68 1003.60 1003.56 1003.56 1003.68 1003.84 1004.08 1004.32 1004.64 1004.92
1024.00 1023.84 1023.68 1023.52 1023.32 1023.12 1022.88 1022.68 1022.48 1022.28 1022.12 1021.88 1021.68 1021.44 1021.28 1021.04 1020.80 1020.56 1020.28 1020.04 1019.80 1019.56 1019.28 1019.08 1018.80 1018.56 1018.24 1017.92 1017.56 1017.24 1016.84 1016.44 1016.08 1015.68 1015.40 1015.04 1014.68 1014.28 1013.88 1013.48 1013.04 1012.56 1012.04 1011.56 1011.00 1010.48 1009.92 1009.28 1008.64 1008.04 1007.40 1006.80 1006.12 1005.44 1004.84 1004.40 1004.00 1003.68 1003.48 1003.32 1003.20 1003.20 1003.28 1003.40 1003.60 1003.84 1004.12 1004.40 1004.68
1023.92 1023.76 1023.60 1023.40 1023.20 1023.00 1022.84 1022.60 1022.40 1022.24 1022.00 1021.80 1021.56 1021.36 1021.16 1020.92 1020.68 1020.40 1020.12 1019.88 1019.68 1019.40 1019.16 1018.96 1018.68 1018.40 1018.08 1017.72 1017.40 1017.08 1016.68 1016.36 1015.96 1015.56 1015.16 1014.84 1014.48 1014.12 1013.68 1013.28 1012.84 1012.32 1011.84 1011.36 1010.84 1010.32 1009.76 1009.16 1008.44 1007.72 1007.04 1006.40 1005.76 1005.16 1004.60 1004.16 1003.84 1003.56 1003.32 1003.16 1003.04 1003.00 1003.08 1003.28 1003.48 1003.72 1004.00 1004.24 1004.48
1023.84 1023.68 1023.48 1023.32 1023.12 1022.92 1022.72 1022.56 1022.36 1022.12 1021.92 1021.68 1021.48 1021.28 1021.04 1020.84 1020.56 1020.32 1020.04 1019.80 1019.52 1019.28 1019.00 1018.72 1018.44 1018.20 1017.88 1017.52 1017.16 1016.84 1016.56 1016.24 1015.88 1015.48 1015.04 1014.64 1014.24 1013.88 1013.48 1013.08 1012.60 1012.12 1011.68 1011.20 1010.60 1010.00 1009.48 1008.96 1008.32 1007.64 1006.88 1006.16 1005.56 1004.96 1004.52 1004.12 1003.84 1003.56 1003.32 1003.08 1002.96 1002.96 1003.04 1003.20 1003.40 1003.64 1003.84 1004.12 1004.36
1023.76 1023.60 1023.40 1023.28 1023.04 1022.84 1022.68 1022.48 1022.28 1022.04 1021.80 1021.56 1021.36 1021.16 1020.96 1020.72 1020.48 1020.24 1020.00 1019.68 1019.40 1019.12 1018.88 1018.64 1018.32 1018.00 1017.68 1017.36 1017.00 1016.68 1016.40 1016.08 1015.76 1015.40 1015.00 1014.56 1014.12 1013.68 1013.28 1012.88 1012.44 1012.00 1011.48 1010.92 1010.36 1009.76 1009.16 1008.64 1008.08 1007.44 1006.80 1006.12 1005.48 1004.96 1004.56 1004.28 1003.92 1003.64 1003.36 1003.08 1002.92 1002.92 1003.04 1003.20 1003.40 1003.60 1003.84 1004.04 1004.28
1023.68 1023.52 1023.36 1023.16 1022.96 1022.80 1022.56 1022.40 1022.16 1021.96 1021.68 1021.48 1021.28 1021.12 1020.84 1020.64 1020.40 1020.12 1019.88 1019.60 1019.32 1019.04 1018.76 1018.52 1018.24 1017.88 1017.56 1017.28 1016.96 1016.64 1016.28 1015.96 1015.56 1015.28 1014.92 1014.52 1014.08 1013.64 1013.20 1012.72 1012.28 1011.84 1011.36 1010.76 1010.12 1009.56 1009.00 1008.44 1007.84 1007.24 1006.64 1006.04 1005.52 1005.04 1004.68 1004.36 1004.00 1003.68 1003.40 1003.12 1002.96 1002.96 1003.00 1003.12 1003.36 1003.56 1003.76 1003.96 1004.20
1023.60 1023.40 1023.28 1023.08 1022.88 1022.68 1022.48 1022.24 1022.04 1021.84 1021.64 1021.40 1021.24 1021.04 1020.80 1020.56 1020.32 1020.08 1019.80 1019.48 1019.20 1018.92 1018.64 1018.36 1018.12 1017.80 1017.48 1017.16 1016.84 1016.56 1016.20 1015.84 1015.48 1015.12 1014.76 1014.40 1013.96 1013.56 1013.12 1012.60 1012.16 1011.68 1011.12 1010.56 1010.00 1009.40 1008.88 1008.28 1007.68 1007.08 1006.52 1006.00 1005.52 1005.12 1004.80 1004.52 1004.20 1003.88 1003.56 1003.28 1003.04 1003.00 1003.12 1003.20 1003.36 1003.52 1003.68 1003.92 1004.12
1023.52 1023.36 1023.20 1023.04 1022.88 1022.64 1022.40 1022.20 1022.00 1021.80 1021.56 1021.40 1021.20 1020.96 1020.72 1020.48 1020.28 1020.00 1019.68 1019.40 1019.12 1018.88 1018.60 1018.28 1018.00 1017.68 1017.40 1017.12 1016.80 1016.40 1016.04 1015.68 1015.40 1015.04 1014.64 1014.20 1013.80 1013.36 1012.96 1012.48 1012.00 1011.48 1010.92 1010.36 1009.84 1009.28 1008.72 1008.16 1007.60 1007.04 1006.48 1006.00 1005.56 1005.20 1004.88 1004.64 1004.40 1004.12 1003.84 1003.52 1003.24 1003.12 1003.12 1003.28 1003.40 1003.56 1003.72 1003.92 1004.12
1023.40 1023.28 1023.16 1022.96 1022.80 1022.56 1022.36 1022.12 1021.92 1021.72 1021.56 1021.32 1021.12 1020.92 1020.68 1020.40 1020.12 1019.84 1019.60 1019.36 1019.12 1018.84 1018.56 1018.28 1017.96 1017.68 1017.40 1017.04 1016.72 1016.36 1016.00 1015.60 1015.24 1014.88 1014.52 1014.12 1013.68 1013.24 1012.76 1012.32 1011.84 1011.36 1010.80 1010.24 1009.68 1009.12 1008.64 1008.12 1007.56 1007.04 1006.52 1006.00 1005.68 1005.40 1005.12 1004.80 1004.60 1004.36 1004.08 1003.80 1003.52 1003.32 1003.28 1003.40 1003.52 1003.68 1003.84 1004.00 1004.16
1023.32 1023.20 1023.08 1022.92 1022.72 1022.52 1022.28 1022.04 1021.84 1021.64 1021.44 1021.28 1021.08 1020.84 1020.60 1020.36 1020.08 1019.80 1019.56 1019.28 1019.04 1018.76 1018.44 1018.16 1017.92 1017.60 1017.28 1016.96 1016.64 1016.28 1015.92 1015.52 1015.12 1014.80 1014.40 1014.00 1013.64 1013.16 1012.68 1012.20 1011.72 1011.24 1010.68 1010.12 1009.56 1009.04 1008.56 1008.08 1007.60 1007.12 1006.60 1006.16 1005.84 1005.60 1005.36 1005.04 1004.84 1004.64 1004.40 1004.08 1003.80 1003.56 1003.48 1003.56 1003.64 1003.80 1004.00 1004.12 1004.28
1023.24 1023.12 1023.00 1022.84 1022.68 1022.44 1022.16 1021.96 1021.76 1021.56 1021.40 1021.24 1021.04 1020.80 1020.56 1020.28 1020.00 1019.68 1019.44 1019.24 1018.96 1018.68 1018.36 1018.04 1017.80 1017.48 1017.12 1016.80 1016.48 1016.12 1015.80 1015.44 1015.04 1014.68 1014.28 1013.96 1013.56 1013.16 1012.64 1012.12 1011.60 1011.12 1010.56 1009.96 1009.44 1008.96 1008.52 1008.04 1007.56 1007.12 1006.68 1006.28 1006.04 1005.84 1005.64 1005.36 1005.12 1004.96 1004.72 1004.44 1004.16 1003.96 1003.84 1003.76 1003.84 1003.96 1004.12 1004.28 1004.40
1023.12 1023.00 1022.92 1022.80 1022.56 1022.36 1022.12 1021.92 1021.72 1021.56 1021.36 1021.20 1021.00 1020.72 1020.44 1020.12 1019.84 1019.56 1019.36 1019.16 1018.96 1018.68 1018.40 1018.04 1017.76 1017.48 1017.16 1016.84 1016.48 1016.08 1015.68 1015.36 1014.96 1014.60 1014.24 1013.88 1013.52 1013.08 1012.56 1012.04 1011.56 1011.00 1010.40 1009.84 1009.40 1008.96 1008.48 1008.00 1007.56 1007.12 1006.68 1006.32 1006.16 1006.00 1005.84 1005.60 1005.40 1005.24 1005.04 1004.84 1004.60 1004.40 1004.28 1004.16 1004.16 1004.20 1004.28 1004.40 1004.56
1023.08 1022.96 1022.84 1022.68 1022.52 1022.32 1022.12 1021.92 1021.72 1021.56 1021.36 1021.16 1020.96 1020.68 1020.36 1020.08 1019.80 1019.56 1019.28 1019.12 1018.84 1018.60 1018.32 1018.04 1017.76 1017.48 1017.16 1016.84 1016.52 1016.12 1015.68 1015.28 1014.88 1014.56 1014.20 1013.84 1013.40 1012.96 1012.52 1012.00 1011.48 1010.92 1010.32 1009.80 1009.36 1008.92 1008.44 1008.00 1007.56 1007.08 1006.68 1006.28 1006.12 1006.04 1005.92 1005.76 1005.64 1005.48 1005.32 1005.16 1005.00 1004.88 1004.76 1004.64 1004.56 1004.56 1004.56 1004.68 1004.84
1023.08 1022.96 1022.84 1022.68 1022.48 1022.28 1022.12 1021.92 1021.72 1021.56 1021.36 1021.12 1020.84 1020.56 1020.28 1020.04 1019.84 1019.60 1019.32 1019.04 1018.80 1018.48 1018.20 1017.88 1017.64 1017.36 1017.00 1016.68 1016.36 1016.00 1015.60 1015.24 1014.84 1014.52 1014.12 1013.72 1013.32 1012.88 1012.40 1011.84 1011.32 1010.76 1010.24 1009.80 1009.32 1008.84 1008.40 1007.88 1007.40 1006.96 1006.56 1006.24 1006.12 1006.04 1005.96 1005.84 1005.80 1005.68 1005.60 1005.44 1005.40 1005.28 1005.20 1005.08 1004.96 1004.96 1004.92 1004.96 1005.12
1023.00 1022.96 1022.84 1022.68 1022.48 1022.28 1022.08 1021.92 1021.72 1021.56 1021.36 1021.08 1020.76 1020.48 1020.20 1019.96 1019.76 1019.56 1019.32 1019.00 1018.72 1018.44 1018.16 1017.84 1017.48 1017.20 1016.88 1016.56 1016.20 1015.84 1015.52 1015.20 1014.84 1014.48 1014.12 1013.68 1013.28 1012.84 1012.36 1011.80 1011.20 1010.68 1010.16 1009.76 1009.32 1008.84 1008.32 1007.80 1007.28 1006.80 1006.40 1006.12 1006.04 1006.04 1006.00 1005.96 1005.92 1005.88 1005.84 1005.76 1005.72 1005.68 1005.60 1005.52 1005.44 1005.40 1005.36 1005.40 1005.40
1022.92 1022.88 1022.80 1022.64 1022.44 1022.28 1022.08 1021.88 1021.72 1021.56 1021.28 1021.04 1020.72 1020.48 1020.24 1020.00 1019.72 1019.48 1019.24 1018.96 1018.72 1018.44 1018.12 1017.80 1017.44 1017.12 1016.84 1016.56 1016.20 1015.84 1015.48 1015.12 1014.84 1014.48 1014.08 1013.64 1013.32 1012.88 1012.32 1011.72 1011.16 1010.68 1010.20 1009.72 1009.28 1008.80 1008.28 1007.68 1007.12 1006.56 1006.16 1006.00 1006.00 1006.04 1006.08 1006.12 1006.08 1006.08 1006.04 1006.00 1006.00 1006.00 1005.96 1005.88 1005.84 1005.80 1005.76 1005.76 1005.84
1022.84 1022.80 1022.72 1022.64 1022.44 1022.28 1022.08 1021.88 1021.72 1021.52 1021.28 1021.00 1020.72 1020.44 1020.20 1020.00 1019.72 1019.44 1019.16 1018.96 1018.76 1018.52 1018.16 1017.80 1017.44 1017.12 1016.84 1016.56 1016.24 1015.80 1015.40 1015.04 1014.80 1014.48 1014.12 1013.68 1013.36 1012.92 1012.40 1011.76 1011.24 1010.72 1010.28 1009.80 1009.28 1008.80 1008.20 1007.60 1006.96 1006.40 1006.00 1005.92 1006.08 1006.16 1006.20 1006.24 1006.24 1006.28 1006.24 1006.24 1006.28 1006.28 1006.28 1006.28 1006.24 1006.20 1006.20 1006.20 1006.24
1022.76 1022.68 1022.64 1022.56 1022.40 1022.24 1022.04 1021.84 1021.68 1021.48 1021.20 1020.92 1020.68 1020.40 1020.12 1019.92 1019.68 1019.40 1019.16 1018.96 1018.80 1018.56 1018.28 1017.88 1017.52 1017.12 1016.84 1016.56 1016.16 1015.76 1015.36 1014.96 1014.68 1014.40 1014.12 1013.76 1013.40 1012.92 1012.40 1011.92 1011.40 1010.88 1010.40 1009.84 1009.32 1008.72 1008.12 1007.48 1006.84 1006.24 1005.92 1006.00 1006.20 1006.32 1006.32 1006.36 1006.40 1006.44 1006.44 1006.44 1006.48 1006.56 1006.56 1006.56 1006.60 1006.60 1006.56 1006.56 1006.56
1022.68 1022.64 1022.56 1022.48 1022.32 1022.16 1022.00 1021.84 1021.60 1021.40 1021.12 1020.88 1020.64 1020.40 1020.12 1019.88 1019.64 1019.36 1019.12 1018.92 1018.72 1018.52 1018.24 1017.84 1017.48 1017.12 1016.76 1016.48 1016.16 1015.80 1015.40 1014.96 1014.60 1014.32 1014.04 1013.72 1013.36 1012.88 1012.40 1012.04 1011.60 1011.12 1010.56 1009.92 1009.36 1008.76 1008.12 1007.44 1006.80 1006.28 1006.08 1006.28 1006.40 1006.48 1006.52 1006.56 1006.60 1006.64 1006.68 1006.68 1006.68 1006.76 1006.84 1006.84 1006.88 1006.88 1006.88 1006.88 1006.88
1022.60 1022.56 1022.44 1022.36 1022.20 1022.08 1021.92 1021.72 1021.52 1021.28 1021.00 1020.84 1020.60 1020.36 1020.12 1019.84 1019.60 1019.36 1019.12 1018.88 1018.64 1018.40 1018.12 1017.76 1017.40 1017.04 1016.72 1016.44 1016.12 1015.80 1015.40 1014.96 1014.56 1014.24 1013.96 1013.64 1013.28 1012.92 1012.52 1012.16 1011.76 1011.28 1010.72 1010.08 1009.44 1008.80 1008.12 1007.48 1006.84 1006.44 1006.40 1006.56 1006.68 1006.68 1006.72 1006.72 1006.80 1006.84 1006.88 1006.88 1006.92 1006.96 1007.00 1007.08 1007.08 1007.08 1007.12 1007.12 1007.16
Wind_Speed
4 4 4 4 4 4 4 4 5 5 4 4 5 5 5 5 6 6 6 6 6 7 7 7 8 9 10 12 13 14 14 14 15 15 16 16 15 15 15 15 16 16 16 16 16 15 14 14 13 11 10 10 11 12 12 12 13 14 14 14 12 12 14 16 16 16 17 17 14
5 5 5 5 5 4 4 4 5 5 5 4 5 5 5 5 5 6 6 6 6 7 7 7 9 10 12 13 13 13 13 14 15 15 15 16 16 16 16 15 16 16 17 18 17 15 13 14 13 12 11 10 11 12 13 13 13 14 16 17 14 12 12 13 15 16 17 17 15
5 5 5 5 5 5 5 5 5 6 6 5 5 5 5 5 5 6 6 6 7 7 7 8 9 10 12 13 13 13 13 14 15 16 16 16 16 16 16 15 16 17 18 17 16 15 14 14 13 12 11 11 12 13 13 14 14 14 15 17 14 12 10 10 12 13 14 14 15
6 5 5 6 6 6 5 5 6 6 6 6 5 5 5 5 5 5 6 7 7 7 7 8 9 10 11 12 13 14 14 14 16 17 17 16 16 16 17 17 17 17 18 17 17 17 17 16 13 12 12 13 15 15 14 13 14 14 14 13 12 11 11 10 10 10 11 13 13
6 6 5 6 6 6 6 5 6 7 6 6 6 6 6 5 5 6 6 7 7 8 9 10 10 10 10 12 14 15 15 16 16 16 16 16 17 17 17 17 17 17 17 17 18 18 18 18 14 12 12 13 13 13 14 15 15 15 13 12 11 11 11 10 9 9 10 11 11
7 7 6 6 6 6 6 5 6 6 6 6 6 7 7 6 6 7 8 8 9 10 11 11 11 11 12 13 14 15 15 15 15 15 16 17 16 16 17 18 18 18 17 17 18 19 19 17 13 12 11 12 13 14 15 17 16 15 14 12 12 11 10 10 9 8 8 10 13
6 7 7 7 7 7 6 6 6 6 6 6 8 9 9 9 9 9 9 9 9 10 10 10 11 12 13 14 14 15 15 15 15 16 17 16 16 17 17 18 19 19 18 18 19 18 17 16 13 12 12 12 11 13 16 16 15 14 14 14 12 11 10 11 9 8 9 12 15
6 6 6 7 7 7 7 7 7 7 7 7 8 10 10 10 11 11 10 10 9 9 9 9 11 12 13 14 14 14 15 16 16 16 17 16 17 18 18 19 19 19 19 19 18 18 18 15 13 12 12 11 11 13 15 17 17 17 16 16 13 12 11 11 9 9 10 13 15
6 7 7 7 7 7 7 7 7 7 8 8 9 10 11 11 11 11 10 10 10 10 10 10 12 13 14 14 14 14 14 14 16 16 17 17 17 18 18 18 19 19 19 19 19 19 19 16 13 12 12 12 12 13 16 18 19 19 18 16 14 13 12 11 11 11 11 13 15
7 7 8 8 8 8 8 8 8 8 8 9 10 10 11 11 11 10 9 9 10 10 11 11 12 13 14 14 14 14 14 14 15 16 17 17 18 18 18 18 19 19 20 19 19 19 18 16 14 14 15 14 16 18 19 21 21 20 18 14 14 13 13 12 12 12 12 12 13
8 7 7 7 8 8 8 8 8 8 8 9 10 10 10 11 10 10 9 9 10 11 12 12 12 13 13 13 13 14 14 14 14 16 17 18 18 19 19 18 19 20 20 20 19 17 16 15 16 17 18 18 18 19 20 21 21 20 19 16 15 15 15 13 12 11 11 11 12
8 8 7 8 8 8 8 7 7 7 8 9 10 10 10 9 10 10 10 10 11 12 12 12 12 13 12 12 13 13 14 15 16 17 17 18 19 19 19 19 19 20 20 20 18 16 15 16 18 20 21 22 18 17 18 20 21 20 19 17 16 16 15 15 13 11 10 9 10
7 8 8 8 8 8 7 7 7 7 8 9 9 9 9 9 10 10 10 11 12 12 11 12 12 12 12 12 13 13 14 15 16 17 17 18 19 19 19 19 19 20 20 19 18 17 17 18 20 21 22 23 20 18 19 21 20 19 18 17 16 16 16 16 15 13 11 10 10
7 8 8 8 8 8 7 7 7 7 8 9 9 9 9 9 10 9 9 10 11 11 11 12 11 11 11 13 13 14 15 15 16 17 18 19 19 19 19 18 19 19 19 18 19 19 20 20 21 22 22 23 22 22 22 21 20 18 17 16 16 16 16 16 15 14 12 12 12
8 8 8 8 8 7 7 7 7 7 8 9 9 9 8 8 9 9 9 10 11 11 11 11 11 12 12 13 14 15 16 16 16 17 18 19 19 19 18 19 20 20 20 19 20 21 21 22 22 22 22 22 23 23 23 22 19 17 16 15 15 15 15 15 15 14 13 13 13
8 9 8 8 8 8 8 7 7 7 8 9 9 9 9 8 8 9 10 11 10 10 11 12 12 12 13 14 14 15 15 15 16 17 18 18 19 19 19 19 20 21 21 21 22 22 22 22 22 21 22 22 23 23 23 22 20 18 16 15 15 15 15 15 15 14 13 13 14
9 9 9 8 9 9 9 8 8 8 8 9 9 9 9 9 8 9 10 11 10 11 12 13 13 13 13 14 14 14 14 15 15 16 17 18 19 19 19 20 20 21 21 22 23 23 24 23 22 22 22 22 22 22 22 22 20 17 16 15 15 15 15 15 14 14 13 13 13
9 9 9 9 9 9 10 10 9 9 10 10 10 10 9 9 9 10 10 11 11 12 13 14 13 13 13 15 14 13 13 14 15 16 17 18 19 19 19 20 20 21 21 22 23 24 24 24 23 22 21 21 21 21 21 21 18 17 16 16 16 16 15 15 14 13 12 12 13
9 9 9 9 10 10 10 10 10 10 10 10 10 10 10 10 10 10 11 11 12 13 14 14 14 14 14 15 15 14 14 14 15 17 18 18 18 19 19 20 20 21 21 22 23 23 24 24 23 23 22 21 21 22 22 21 18 17 17 17 16 16 16 16 15 13 12 12 12
9 9 9 9 10 10 10 10 10 10 10 10 10 10 11 11 11 11 12 12 13 13 13 14 14 14 15 15 16 16 15 14 15 17 18 18 18 18 19 20 20 21 21 21 22 23 23 23 23 23 22 23 23 24 23 22 19 18 17 16 15 15 15 15 15 14 13 12 12
9 9 9 9 9 10 10 10 10 10 10 10 10 11 11 11 11 11 12 13 13 13 13 14 14 15 15 16 16 16 15 14 15 16 17 17 18 18 19 19 20 20 20 21 22 22 23 23 23 22 23 23 24 24 23 21 19 17 16 14 13 13 14 15 14 14 13 12 12
8 8 8 9 9 9 10 10 10 10 10 10 10 10 10 11 11 12 12 13 13 13 13 14 14 14 15 15 16 16 16 14 15 15 16 16 17 18 18 18 19 20 21 21 21 22 22 22 22 23 23 23 24 24 23 21 18 16 14 13 12 12 13 13 13 13 13 12 12
8 8 8 9 9 10 10 10 10 10 10 10 10 10 10 11 11 12 12 13 13 13 13 13 13 14 14 15 15 15 16 15 16 16 16 16 17 18 18 18 18 19 20 19 20 20 21 21 21 22 22 22 23 23 22 19 16 14 12 12 11 11 11 12 12 12 12 12 12
9 9 8 8 8 9 10 9 9 10 10 10 10 10 11 11 12 12 12 13 13 13 13 12 12 13 14 14 15 15 15 16 16 17 18 18 17 18 18 17 17 18 18 17 19 22 24 22 20 20 21 21 21 20 19 17 14 11 10 10 9 8 9 10 10 10 10 11 11
9 9 9 8 9 9 9 9 9 10 10 10 10 10 11 11 12 12 13 13 14 14 14 14 13 13 13 13 14 14 14 15 16 17 18 18 18 18 17 16 16 15 15 16 25 31 33 31 26 23 20 19 19 17 15 13 11 10 9 8 7 6 8 9 9 10 10 10 10
8 9 9 9 9 9 9 10 10 10 10 10 10 10 11 11 11 12 13 14 14 14 14 14 13 13 13 12 13 14 14 14 15 16 17 18 19 19 18 16 15 14 15 20 29 35 37 37 35 31 26 20 18 15 12 9 9 9 9 7 5 5 7 8 9 9 10 10 10
8 8 9 9 9 9 10 10 10 10 10 10 10 11 11 11 11 12 13 14 14 14 13 12 12 13 13 12 13 14 15 15 15 15 16 17 18 19 18 17 16 15 17 25 33 36 37 37 38 36 32 25 19 14 9 7 8 9 8 6 4 5 6 8 9 9 10 9 10
7 8 8 9 9 10 10 10 10 10 10 10 10 11 11 12 12 13 13 13 13 13 12 11 11 10 10 11 13 14 15 16 15 15 15 16 18 18 18 17 16 18 22 30 35 37 37 37 37 37 36 31 20 12 7 6 8 8 8 6 3 4 6 7 7 8 9 9 10
8 8 8 9 9 10 10 10 10 10 10 10 10 11 11 12 12 13 13 13 13 13 12 10 10 9 10 11 13 14 15 16 15 15 15 16 18 18 18 19 19 21 25 33 35 37 37 37 37 37 37 34 20 10 5 5 6 7 8 7 3 2 4 5 5 6 7 8 9
8 8 8 9 9 10 10 10 10 10 10 9 10 10 11 12 12 13 13 13 13 12 11 11 11 11 13 13 14 14 15 15 15 15 16 17 18 19 20 20 20 21 25 32 35 36 37 37 36 36 36 35 22 11 5 5 6 7 7 7 5 1 3 5 6 6 7 7 8
8 7 8 8 9 10 10 10 10 10 9 9 10 10 11 12 12 12 12 11 11 12 12 13 13 14 15 15 14 14 15 15 15 16 16 17 19 19 20 21 21 22 25 32 35 36 37 36 36 35 35 34 22 12 6 6 6 7 7 8 7 4 3 6 7 7 8 8 8
7 7 8 8 9 10 10 10 10 10 10 10 11 11 12 12 12 12 11 11 11 12 14 14 15 15 16 16 15 16 16 16 16 16 17 17 18 19 20 21 20 22 25 32 35 36 36 36 35 35 34 33 21 12 7 6 6 7 8 9 9 8 5 5 6 8 9 9 8
7 8 8 9 10 10 11 11 10 10 11 11 11 12 12 12 12 12 12 11 11 12 13 14 14 15 15 15 16 16 16 16 17 17 18 18 18 19 20 20 18 21 26 33 35 36 36 35 35 34 34 32 19 11 6 6 5 6 7 8 10 10 9 7 7 8 8 9 8
7 8 8 9 10 10 10 10 10 10 10 11 11 12 12 12 13 12 12 11 11 10 11 12 12 12 13 14 14 15 16 16 16 17 18 18 18 19 19 18 16 20 27 34 35 36 36 35 34 34 33 29 16 8 4 5 4 5 6 7 9 9 10 9 8 8 8 8 8
7 8 8 9 9 10 10 10 10 10 10 11 12 12 12 12 12 12 12 12 12 11 11 11 12 12 12 13 14 15 16 17 17 17 18 18 18 19 20 19 18 23 29 34 35 36 36 35 34 34 31 24 12 5 3 3 4 4 6 7 8 9 9 9 9 8 8 9 9
7 8 8 9 9 10 10 10 10 10 11 11 12 13 13 12 11 10 11 12 12 12 12 13 13 14 14 14 14 15 16 16 17 17 17 18 18 19 20 20 20 24 29 34 35 36 36 36 35 33 28 18 7 2 2 3 3 4 5 6 7 8 8 9 8 8 8 8 9
7 7 8 8 9 9 9 9 9 10 11 11 12 12 12 12 11 10 10 11 11 12 13 14 14 14 15 15 15 15 16 16 16 16 17 18 18 19 20 20 21 24 28 32 35 36 36 36 35 32 25 12 4 2 2 3 3 3 5 6 6 7 7 7 7 8 8 9 9
7 7 7 7 8 9 9 9 9 10 11 11 10 10 10 10 9 10 10 10 10 11 12 13 14 14 15 15 15 16 16 16 16 16 17 17 18 18 20 20 21 23 26 31 35 36 37 37 36 31 22 7 3 3 3 3 3 3 4 5 5 5 6 5 5 6 7 8 10
7 7 7 7 8 8 9 9 9 10 10 11 10 10 10 9 8 9 9 9 9 9 11 12 13 14 15 15 15 15 16 16 16 16 16 16 17 19 20 20 21 22 26 31 35 37 38 39 36 29 17 5 4 4 3 3 3 3 4 4 4 5 5 4 4 4 5 8 11
7 6 6 6 7 8 8 9 9 9 9 9 10 11 10 9 9 9 10 9 9 9 10 11 13 14 14 15 14 15 15 16 15 15 16 16 18 20 21 19 20 22 26 31 35 38 39 40 35 23 11 7 5 4 3 3 4 4 4 4 4 4 4 4 4 3 4 6 9
6 5 6 6 7 7 8 9 9 9 9 9 9 9 9 9 8 8 9 9 9 9 10 10 13 14 15 14 13 13 14 16 16 16 16 17 17 18 18 17 19 22 25 29 34 38 40 41 31 17 9 8 5 4 4 3 4 4 4 4 4 4 4 3 3 3 3 4 5
Wind_Direction
327 325 322 320 322 321 319 314 313 315 317 319 317 315 315 315 313 311 311 312 313 313 313 312 310 309 309 310 309 307 306 306 305 305 304 303 301 301 301 301 301 301 300 299 297 295 293 291 289 286 282 279 278 277 277 276 277 276 275 272 269 265 262 259 252 241 230 223 221
321 318 316 317 320 321 318 316 315 317 318 317 312 311 310 309 308 308 308 310 311 311 311 310 309 309 309 309 308 307 307 306 306 305 304 303 301 301 301 301 301 300 300 299 298 296 293 292 289 286 282 279 277 276 275 273 273 273 272 270 268 264 260 259 257 250 241 229 222
318 318 319 321 322 322 321 318 316 315 313 311 310 308 306 305 304 304 306 308 309 309 309 309 309 309 309 308 309 308 308 307 307 307 306 304 303 302 301 300 300 299 299 299 298 296 293 292 289 285 281 278 277 275 274 272 270 270 269 268 266 262 257 255 257 255 250 240 227
319 320 320 318 316 314 311 309 310 310 310 310 308 306 303 301 301 302 304 306 308 309 309 309 309 309 309 309 310 310 309 309 309 308 307 305 303 302 301 300 300 300 300 300 299 297 295 293 289 284 280 277 276 274 272 270 268 266 265 265 263 259 254 250 252 254 255 252 237
318 316 314 312 308 305 302 300 303 305 306 308 308 307 305 302 302 305 308 311 310 309 308 307 307 308 309 310 311 311 311 311 311 310 307 305 303 302 301 301 300 300 300 300 300 298 297 295 290 284 279 277 274 271 269 268 266 264 263 262 261 258 254 248 245 247 252 255 249
313 311 309 306 304 302 301 301 300 301 303 306 305 304 304 305 307 309 309 308 306 305 306 307 308 309 311 313 314 313 313 312 312 310 308 305 302 302 301 301 300 300 301 301 300 299 298 296 291 285 280 277 274 272 270 269 266 263 261 259 258 257 255 250 243 241 244 250 253
304 305 305 305 305 304 304 303 304 304 304 304 303 302 302 303 305 304 303 302 304 307 309 311 312 313 314 315 315 314 313 312 311 310 307 305 303 302 301 301 302 301 301 301 301 300 299 297 292 287 283 280 277 275 273 270 266 262 259 257 256 255 254 252 246 241 241 244 247
301 302 302 304 304 304 304 304 306 308 307 306 303 301 300 301 301 301 302 304 306 308 310 311 311 312 313 314 313 312 311 310 310 309 308 305 303 302 301 301 302 302 302 301 301 301 300 298 293 288 285 283 280 278 277 274 268 263 258 256 255 253 250 248 243 239 237 238 240
309 308 307 307 306 306 306 306 306 305 304 302 299 298 299 300 301 303 305 306 306 307 308 309 309 311 312 312 311 310 310 309 309 308 307 305 303 302 301 301 302 303 303 303 303 302 301 298 293 288 286 284 282 281 280 279 272 265 259 255 253 249 245 242 239 237 235 235 237
309 309 310 311 309 309 309 309 307 304 301 299 298 298 299 302 303 304 304 303 305 306 307 307 309 311 312 312 310 309 308 308 307 307 306 305 303 302 301 301 302 302 303 304 304 303 302 298 293 289 286 284 283 283 283 282 276 269 261 254 251 248 245 242 242 240 238 235 235
303 305 307 308 308 309 311 312 309 306 303 301 300 301 302 303 303 303 302 303 305 305 305 306 309 310 310 310 309 308 307 307 307 306 306 305 303 302 300 299 300 301 302 303 303 303 301 297 293 291 289 287 286 285 285 285 281 272 263 253 249 248 247 246 245 243 240 235 233
301 302 303 304 305 308 310 310 308 307 305 303 302 302 303 303 302 302 303 305 304 304 304 306 308 308 308 307 307 307 307 306 306 306 306 305 303 301 300 299 299 300 301 301 302 301 299 297 294 292 291 291 289 288 287 287 285 278 267 254 247 244 244 245 244 241 237 231 231
301 302 303 304 306 307 308 308 306 305 304 303 302 302 303 302 302 304 305 305 304 304 304 306 307 307 306 306 306 306 306 306 306 306 305 304 302 301 300 299 300 300 301 301 301 301 299 297 295 293 292 292 291 289 288 288 287 283 273 258 247 241 240 241 240 237 232 227 227
302 303 303 304 307 308 307 307 305 304 303 302 302 302 303 303 304 305 305 304 303 303 304 305 306 306 306 306 305 305 305 305 305 305 304 303 302 301 300 300 301 301 302 301 301 301 300 298 296 294 292 292 291 290 289 288 287 284 278 264 251 242 238 237 235 231 225 220 221
304 304 304 306 307 308 307 306 304 304 303 302 302 303 304 305 305 305 305 304 303 303 304 306 307 307 306 306 305 305 305 305 305 305 304 303 302 301 300 301 302 303 303 302 302 301 300 298 296 294 293 292 292 291 290 288 285 282 277 268 258 248 240 234 231 227 221 214 215
307 307 307 308 308 307 306 305 304 304 303 303 304 305 306 305 305 306 306 305 304 304 305 306 307 308 308 307 307 307 307 306 305 305 304 303 303 302 302 302 303 304 304 303 303 302 301 299 297 295 293 292 291 291 290 287 283 278 273 268 262 254 245 236 233 230 224 215 210
308 307 308 308 308 306 305 305 305 305 304 304 305 306 306 306 306 307 307 306 306 306 307 307 307 308 309 309 309 309 308 306 305 305 304 303 303 303 303 303 303 304 304 304 303 303 301 300 298 295 293 291 290 289 287 285 279 273 268 263 258 252 246 239 235 233 230 224 216
307 306 307 307 306 306 305 305 305 305 304 304 305 305 305 306 306 306 306 305 305 306 307 307 308 308 308 308 309 308 307 305 304 303 303 303 303 303 303 303 303 304 304 304 303 302 301 300 298 296 294 291 289 287 284 280 273 267 263 258 252 246 241 236 233 231 230 230 225
304 305 306 306 306 305 305 304 304 303 303 303 304 304 305 305 306 306 306 305 306 306 307 308 308 309 308 308 307 307 306 304 302 302 302 303 303 303 303 304 304 304 304 304 303 302 301 300 298 296 294 291 289 286 282 276 268 261 258 256 250 243 236 231 227 225 224 226 228
301 303 304 304 304 304 303 302 301 301 301 302 303 304 304 305 306 306 306 306 307 307 307 308 308 308 309 308 307 306 305 303 302 302 302 303 304 304 305 305 305 305 305 305 304 303 302 301 299 296 294 291 289 286 281 274 265 259 256 255 250 242 233 227 222 218 216 216 221
299 300 301 302 303 302 300 299 299 300 301 302 303 303 304 306 307 307 306 305 306 307 308 308 308 308 308 308 308 306 304 302 302 302 303 304 305 305 305 306 306 306 306 306 305 304 303 301 299 297 294 292 289 285 281 274 267 262 259 259 253 242 230 222 217 212 209 207 210
298 299 301 302 301 300 299 299 300 301 301 302 303 304 306 307 307 307 306 306 307 308 309 308 309 308 308 307 305 304 303 302 302 303 304 306 306 306 306 307 307 307 308 308 307 306 304 302 300 297 295 292 290 286 283 278 273 269 265 263 254 240 225 214 209 205 203 201 202
297 300 301 301 300 300 300 301 302 302 303 304 306 307 308 309 308 308 308 309 309 309 309 309 309 308 307 305 303 302 302 302 304 305 306 307 307 307 308 308 309 309 310 309 309 308 307 304 302 300 298 295 294 292 291 289 285 280 274 268 254 234 216 204 199 197 197 197 196
297 299 300 301 300 301 301 302 304 305 306 307 308 309 310 310 310 311 311 311 310 310 311 311 310 308 307 304 303 303 303 304 306 308 309 309 309 309 309 310 311 311 311 310 311 312 313 311 308 305 302 300 302 302 303 303 300 293 283 273 254 227 205 194 191 191 192 193 191
297 298 299 300 301 302 303 305 306 306 307 307 308 310 311 312 312 313 312 312 311 312 312 312 311 309 308 306 305 305 305 306 307 309 310 311 311 311 311 312 312 312 312 310 313 315 316 316 314 312 309 307 311 312 313 312 309 302 291 276 250 218 195 185 185 187 188 188 186
298 299 300 300 302 304 305 306 306 306 307 308 311 313 314 313 313 312 312 312 312 313 313 313 312 311 310 309 308 308 309 309 309 310 311 311 311 312 312 313 313 313 312 313 317 319 320 319 318 317 315 314 319 321 322 319 317 312 301 280 246 207 187 180 182 184 185 185 183
298 299 300 302 305 306 306 306 307 309 310 313 314 314 313 313 313 312 312 311 312 313 314 314 313 312 312 310 310 310 311 311 311 311 310 311 311 312 312 313 313 312 313 316 319 321 322 322 321 321 320 321 326 328 328 326 328 325 317 295 247 202 185 180 180 182 183 183 181
298 300 302 306 308 307 307 309 312 313 313 314 314 313 312 312 312 312 311 312 313 315 316 316 315 313 313 312 312 312 311 311 311 311 311 311 311 312 313 313 313 313 315 318 321 323 324 324 323 323 324 326 329 331 331 333 337 337 332 320 271 204 187 180 178 178 178 177 177
298 301 305 308 309 309 311 313 314 314 313 312 312 312 312 312 312 312 312 314 316 318 318 317 316 315 314 313 312 312 312 312 312 312 312 312 313 313 314 314 313 313 315 319 322 324 326 326 325 325 326 329 332 333 336 346 348 346 341 335 320 223 184 173 168 166 166 167 165
300 303 307 309 309 311 313 314 313 312 312 312 313 313 312 312 312 313 315 317 318 317 316 314 314 314 313 312 312 313 313 314 314 314 314 314 315 315 315 315 314 314 316 320 324 326 327 327 327 327 327 331 334 335 338 353 357 354 349 344 346 359 146 144 142 144 147 150 151
302 305 308 310 312 313 313 313 313 314 315 316 315 314 313 312 313 314 316 317 316 315 314 314 314 313 312 313 313 314 314 314 314 315 316 316 316 316 315 314 314 314 316 321 325 328 329 329 328 327 328 332 336 338 343 355 3 1 357 355 360 17 87 123 127 130 133 135 137
304 308 311 314 315 314 314 316 317 318 318 318 316 314 313 312 312 314 316 317 316 316 316 316 316 316 315 316 316 315 315 314 315 316 317 317 317 316 315 314 314 315 318 323 327 329 330 330 329 328 328 332 335 337 341 354 3 5 4 6 11 22 46 91 113 121 123 124 124
309 313 316 317 316 316 317 318 319 319 319 318 315 314 313 313 314 316 318 319 318 317 316 316 316 316 316 315 315 315 314 314 315 316 316 317 316 315 315 315 314 316 321 326 329 330 331 330 329 327 327 330 331 333 340 354 3 8 12 14 19 26 37 58 82 99 108 111 112
313 316 317 317 316 316 317 317 318 318 318 316 314 313 314 315 317 318 320 320 318 316 314 313 313 313 312 312 313 313 313 315 316 317 317 317 316 316 316 316 314 318 323 328 330 331 331 330 328 327 327 328 327 328 339 359 9 17 23 27 27 28 33 42 57 72 85 94 101
313 316 316 315 315 315 315 316 317 317 317 316 314 314 315 316 317 318 317 318 317 316 314 314 313 312 313 313 314 314 315 316 316 316 317 317 318 318 317 316 315 320 326 330 331 332 331 330 328 327 326 326 324 325 346 13 24 31 35 38 36 33 33 37 46 57 70 82 92
311 313 314 313 313 313 314 315 316 316 316 315 315 315 316 317 317 316 315 316 317 317 316 315 316 316 317 318 318 317 317 316 316 316 317 319 320 319 318 317 318 324 328 332 332 332 332 330 329 327 325 324 324 338 16 31 40 46 49 51 45 39 36 36 42 51 61 73 83
308 310 311 311 311 311 312 313 315 315 315 314 313 314 315 315 315 315 316 319 319 318 317 316 317 318 318 319 318 317 316 315 316 317 318 320 321 321 320 321 324 327 330 332 333 333 333 332 330 328 326 326 341 39 49 48 51 56 60 62 55 47 41 38 42 49 57 68 79
305 307 308 308 308 309 310 312 313 313 312 311 311 312 313 314 314 314 316 319 318 317 316 315 315 316 316 317 316 315 315 315 317 318 320 322 322 323 324 326 328 330 332 333 334 335 335 335 332 331 331 346 45 73 63 60 58 61 66 69 65 56 48 43 44 51 62 76 89
302 303 304 304 304 305 308 310 310 309 308 309 310 312 313 314 313 313 314 316 314 313 312 312 312 313 314 317 316 316 316 316 317 319 321 322 323 325 328 331 332 333 333 335 336 337 338 337 335 335 341 39 75 80 68 66 64 64 68 74 73 65 56 49 49 57 74 91 104
298 300 300 300 301 303 305 307 306 305 306 308 310 312 313 313 310 310 312 313 312 311 310 309 310 311 314 318 318 317 317 317 319 321 323 324 323 327 331 334 335 336 336 336 338 339 340 338 337 342 5 74 79 75 68 69 69 68 68 73 77 74 66 56 54 61 79 96 109
297 300 300 300 300 302 304 305 304 305 306 309 309 309 310 311 310 311 313 313 313 312 311 310 311 312 314 318 318 318 318 318 320 322 324 325 325 328 332 337 339 339 338 338 340 341 341 339 340 355 49 88 79 70 67 72 73 72 71 73 77 79 76 67 60 61 70 83 99